Location: Hamburg
(53.5500°N, 10.0000°E)
Time: 14:23:44
(UTC+02:00)

A-11 Canister half - All Passes

Search period start: 19 April 2014 00:00
Search period end: 29 April 2014 00:00
Orbit: 1526 x 1683 km, 47.3° (Epoch: 17 April)

Date Brightness Start Highest point End Pass type
(mag) Time Alt. Az. Time Alt. Az. Time Alt. Az.
19 Apr - 13:30:07 10° S 13:37:52 27° SE 13:45:43 10° E daylight
19 Apr - 15:31:47 10° SW 15:41:22 52° SSE 15:51:02 10° E daylight
19 Apr - 17:35:50 10° W 17:45:44 62° S 17:55:38 10° ESE daylight
19 Apr - 19:40:33 10° W 19:49:57 45° SSW 19:59:14 10° SE daylight
19 Apr - 21:46:31 10° W 21:53:04 20° SW 21:59:33 10° S visible
20 Apr - 13:08:50 10° S 13:16:25 26° SE 13:24:06 10° E daylight
20 Apr - 15:10:20 10° SW 15:19:52 51° SSE 15:29:30 10° E daylight
20 Apr - 17:14:19 10° W 17:24:13 62° S 17:34:07 10° ESE daylight
20 Apr - 19:19:00 10° W 19:28:27 46° SSW 19:37:49 10° SE daylight
20 Apr - 21:24:50 10° W 21:31:38 21° SW 21:38:22 10° S visible
21 Apr - 12:47:35 10° S 12:54:59 25° SE 13:02:29 10° E daylight
21 Apr - 14:48:53 10° SW 14:58:21 50° SSE 15:07:58 10° E daylight
21 Apr - 16:52:48 10° WSW 17:02:41 62° S 17:12:37 10° ESE daylight
21 Apr - 18:57:28 10° W 19:06:57 47° SSW 19:16:23 10° SE daylight
21 Apr - 21:03:10 10° W 21:10:12 22° SW 21:17:10 10° S visible
22 Apr - 12:26:20 10° S 12:33:33 23° SE 12:40:51 10° E daylight
22 Apr - 14:27:27 10° SW 14:36:52 49° SSE 14:46:25 10° E daylight
22 Apr - 16:31:17 10° WSW 16:41:10 62° S 16:51:06 10° ESE daylight
22 Apr - 18:35:56 10° W 18:45:28 48° SSW 18:54:56 10° SE daylight
22 Apr - 20:41:32 10° W 20:48:46 23° SW 20:55:57 10° S daylight
23 Apr - 12:05:07 10° S 12:12:07 22° SE 12:19:12 10° E daylight
23 Apr - 14:06:01 10° SW 14:15:22 48° SSE 14:24:53 10° E daylight
23 Apr - 16:09:47 10° WSW 16:19:38 62° S 16:29:35 10° ESE daylight
23 Apr - 18:14:24 10° W 18:23:58 49° SSW 18:33:29 10° SE daylight
23 Apr - 20:19:54 10° W 20:27:20 24° SW 20:34:42 10° S daylight
24 Apr - 11:43:55 10° S 11:50:41 21° SE 11:57:33 10° E daylight
24 Apr - 13:44:35 10° SW 13:53:52 47° SSE 14:03:20 10° E daylight
24 Apr - 15:48:17 10° WSW 15:58:07 62° S 16:08:03 10° ESE daylight
24 Apr - 17:52:52 10° W 18:02:27 50° SSW 18:12:02 10° SE daylight
24 Apr - 19:58:16 10° W 20:05:53 25° SW 20:13:27 10° S daylight
25 Apr - 11:22:44 10° S 11:29:15 20° SE 11:35:52 10° E daylight
25 Apr - 13:23:10 10° SW 13:32:23 46° SSE 13:41:47 10° E daylight
25 Apr - 15:26:46 10° WSW 15:36:35 62° S 15:46:32 10° E daylight
25 Apr - 17:31:20 10° W 17:40:57 51° SSW 17:50:34 10° SE daylight
25 Apr - 19:36:40 10° W 19:44:26 26° SW 19:52:10 10° S daylight
26 Apr - 11:01:35 10° S 11:07:50 19° SE 11:14:11 10° E daylight
26 Apr - 13:01:45 10° SW 13:10:54 44° SSE 13:20:14 10° E daylight
26 Apr - 15:05:17 10° WSW 15:15:04 62° S 15:25:00 10° E daylight
26 Apr - 17:09:49 10° W 17:19:27 52° SSW 17:29:06 10° SE daylight
26 Apr - 19:15:04 10° W 19:22:59 27° SW 19:30:53 10° S daylight
27 Apr - 10:40:27 10° SSE 10:46:25 18° SE 10:52:28 10° E daylight
27 Apr - 12:40:21 10° SW 12:49:25 43° SSE 12:58:41 10° E daylight
27 Apr - 14:43:47 10° WSW 14:53:33 62° S 15:03:29 10° E daylight
27 Apr - 16:48:17 10° W 16:57:56 53° SSW 17:07:38 10° SE daylight
27 Apr - 18:53:28 10° W 19:01:32 28° SW 19:09:35 10° SSE daylight
28 Apr - 10:19:21 10° SSE 10:25:00 17° SE 10:30:44 10° E daylight
28 Apr - 12:18:57 10° SW 12:27:56 42° SSE 12:37:08 10° E daylight
28 Apr - 14:22:18 10° WSW 14:32:02 61° S 14:41:57 10° E daylight
28 Apr - 16:26:46 10° W 16:36:26 54° SSW 16:46:10 10° SE daylight
28 Apr - 18:31:53 10° W 18:40:05 29° SW 18:48:16 10° SSE daylight
